FW6471 Weather Reports


Display with metric or nautical units.
time (UTC)temp
F
wind
direction
speed
MPH
gust
MPH
rain 1hr
in
rain 24hr
in
rain mn
in
humidity
%
barometer
mb
20260503220605 78 306 2.0 5.0 0.00 0.00 0.00 55 1016.6
20260503220112 78 23 1.0 3.0 0.00 0.00 0.00 56 1016.6
20260503215607 78 335 2.0 5.0 0.00 0.00 0.00 56 1016.7
20260503215105 78 315 2.0 6.0 0.00 0.00 0.00 55 1016.6
20260503214605 78 335 2.0 6.0 0.00 0.00 0.00 56 1016.6
20260503214105 79 322 1.0 3.0 0.00 0.00 0.00 55 1016.7
20260503213606 79 51 1.0 7.0 0.00 0.00 0.00 54 1016.7
20260503213106 79 47 2.0 8.0 0.00 0.01 0.00 54 1016.6
20260503212605 80 318 3.0 8.0 0.00 0.01 0.00 55 1016.6
20260503211605 79 327 3.0 9.0 0.00 0.01 0.00 55 1016.7
20260503211105 79 317 3.0 5.0 0.00 0.01 0.00 56 1016.6
20260503210605 79 317 2.0 6.0 0.00 0.01 0.00 54 1016.7
20260503210112 79 334 2.0 6.0 0.00 0.01 0.00 55 1016.7
20260503205605 79 53 2.0 6.0 0.00 0.01 0.00 55 1016.7
20260503204606 79 91 1.0 6.0 0.00 0.03 0.00 56 1016.7
20260503204105 79 351 2.0 5.0 0.00 0.03 0.00 55 1016.7
20260503203105 81 349 2.0 5.0 0.00 0.04 0.00 53 1016.9
20260503202605 81 76 2.0 6.0 0.00 0.04 0.00 54 1016.9
20260503202105 81 349 4.0 8.0 0.00 0.04 0.00 56 1017.0
20260503201605 80 330 2.0 5.0 0.00 0.04 0.00 56 1017.1
20260503201105 80 50 3.0 10.0 0.00 0.04 0.00 56 1017.3
20260503195605 79 78 2.0 8.0 0.00 0.04 0.00 57 1017.4
20260503195105 79 127 2.0 5.0 0.00 0.05 0.00 58 1017.4
20260503194605 79 64 1.0 3.0 0.00 0.05 0.00 60 1017.5
20260503194105 79 50 1.0 5.0 0.00 0.08 0.00 58 1017.5
20260503193605 79 134 2.0 7.0 0.00 0.09 0.00 58 1017.5
20260503193104 79 94 1.0 5.0 0.00 0.10 0.00 57 1017.7
20260503192605 78 104 2.0 7.0 0.00 0.15 0.00 59 1017.9
20260503191605 78 65 1.0 3.0 0.00 0.21 0.00 60 1018.2
20260503191104 78 308 2.0 3.0 0.00 0.23 0.00 59 1018.2
20260503190605 78 112 2.0 7.0 0.00 0.24 0.00 58 1018.3
20260503190112 79 100 2.0 5.0 0.00 0.24 0.00 59 1018.4
20260503185106 79 31 3.0 7.0 0.00 0.24 0.00 58 1018.5
20260503184104 78 31 2.0 6.0 0.00 0.24 0.00 59 1018.6
20260503183605 79 319 3.0 5.0 0.00 0.24 0.00 59 1018.6
20260503183105 80 97 1.0 5.0 0.00 0.24 0.00 58 1018.7
20260503182605 79 288 2.0 3.0 0.00 0.24 0.00 61 1018.8
20260503182105 79 117 3.0 7.0 0.00 0.24 0.00 61 1018.9
20260503181105 78 310 2.0 7.0 0.00 0.24 0.00 61 1018.9
20260503180604 78 76 2.0 6.0 0.00 0.24 0.00 63 1018.9
20260503175605 77 54 3.0 8.0 0.00 0.24 0.00 65 1019.1
20260503175104 77 107 3.0 8.0 0.00 0.24 0.00 62 1019.2
20260503174605 78 321 3.0 8.0 0.00 0.24 0.00 63 1019.2
20260503174105 77 36 2.0 7.0 0.00 0.24 0.00 64 1019.2
20260503173604 76 310 2.0 6.0 0.00 0.24 0.00 64 1019.2
20260503172605 75 21 2.0 7.0 0.00 0.24 0.00 68 1019.3
20260503172105 75 319 5.0 10.0 0.00 0.24 0.00 65 1019.4
20260503171605 76 321 3.0 6.0 0.00 0.24 0.00 64 1019.5
20260503171105 76 320 3.0 8.0 0.00 0.24 0.00 65 1019.5
20260503170605 76 49 3.0 7.0 0.00 0.24 0.00 66 1019.5
20260503170111 76 350 2.0 7.0 0.00 0.24 0.00 67 1019.5
20260503160111 73 34 2.0 6.0 0.00 0.24 0.00 71 1019.8
20260503150604 70 329 2.0 6.0 0.00 0.24 0.00 75 1020.1
20260503140111 67 314 3.0 15.0 0.00 0.24 0.00 82 1019.3
20260503131104 64 309 3.0 5.0 0.00 0.24 0.00 90 1019.0
20260503130605 63 334 2.0 9.0 0.00 0.24 0.00 91 1018.9
20260503130110 63 312 3.0 7.0 0.00 0.24 0.00 91 1019.0
20260503120111 62 37 3.0 7.0 0.00 0.24 0.00 92 1018.3
20260503110604 62 318 2.0 5.0 0.00 0.24 0.00 92 1017.9
20260503110110 62 325 2.0 3.0 0.00 0.24 0.00 92 1017.9
20260503100110 62 334 1.0 3.0 0.00 0.24 0.00 92 1017.3
20260503090111 63 315 2.0 7.0 0.00 0.24 0.00 91 1016.9
20260503081605 63 308 3.0 6.0 0.00 0.24 0.00 92 1016.6
20260503081104 63 320 3.0 9.0 0.00 0.24 0.00 92 1016.7
20260503080604 63 326 3.0 7.0 0.00 0.24 0.00 92 1016.5
20260503080111 63 325 3.0 8.0 0.00 0.24 0.00 91 1016.2
20260503072604 64 323 3.0 5.0 0.00 0.24 0.00 91 1016.4
20260503072103 64 334 4.0 7.0 0.00 0.24 0.00 91 1016.4
20260503071604 64 332 1.0 6.0 0.00 0.24 0.00 91 1016.3
20260503071104 64 327 2.0 6.0 0.00 0.24 0.00 92 1016.5
20260503070109 64 326 3.0 8.0 0.00 0.24 0.00 91 1016.5
20260503060110 65 317 3.0 8.0 0.00 0.24 0.00 91 1016.3
20260503055104 66 319 2.0 6.0 0.00 0.24 0.00 92 1016.5
20260503054604 66 314 2.0 5.0 0.00 0.24 0.00 92 1016.6
20260503054104 66 312 3.0 5.0 0.00 0.24 0.00 92 1016.6
20260503053604 66 16 2.0 3.0 0.00 0.24 0.00 92 1016.6
20260503053104 66 58 1.0 2.0 0.00 0.24 0.00 92 1016.6
20260503052604 66 62 1.0 3.0 0.00 0.24 0.00 92 1016.6
20260503052103 66 310 2.0 3.0 0.00 0.24 0.00 91 1016.5
20260503051604 66 339 3.0 8.0 0.00 0.24 0.00 91 1016.4
20260503051104 66 312 3.0 7.0 0.00 0.24 0.00 91 1016.5
20260503050603 66 324 3.0 21.0 0.00 0.24 0.00 91 1016.4
20260503050109 66 327 1.0 6.0 0.00 0.24 0.00 91 1016.5
20260503045604 66 321 2.0 7.0 0.00 0.24 0.00 91 1016.5
20260503045104 66 325 4.0 9.0 0.00 0.24 0.00 91 1016.5
20260503044604 67 322 3.0 8.0 0.00 0.24 0.00 91 1016.5
20260503044106 67 328 3.0 7.0 0.00 0.24 0.00 91 1016.6
20260503043606 67 327 5.0 10.0 0.00 0.24 0.00 92 1016.6
20260503042606 68 332 3.0 12.0 0.00 0.24 0.00 91 1016.4
20260503042105 68 316 4.0 9.0 0.00 0.24 0.00 91 1016.0
20260503041606 69 318 6.0 9.0 0.00 0.24 0.00 91 1015.7
20260503041106 69 334 4.0 7.0 0.00 0.24 0.00 91 1015.6
20260503040606 69 335 2.0 7.0 0.00 0.24 0.00 91 1015.4
20260503040112 69 319 4.0 10.0 0.00 0.24 0.00 91 1015.5
20260503035605 69 334 3.0 10.0 0.00 0.24 0.24 91 1015.5
20260503035105 69 324 3.0 9.0 0.00 0.24 0.24 91 1015.3
20260503034106 70 316 5.0 9.0 0.00 0.24 0.24 93 1015.2
20260503033106 70 320 0.0 3.0 0.00 0.24 0.24 93 1014.8
20260503032606 70 320 0.0 2.0 0.00 0.24 0.24 93 1014.8
20260503031606 70 320 1.0 3.0 0.00 0.24 0.24 93 1014.5
20260503030111 71 326 2.0 5.0 0.00 0.24 0.24 94 1014.4
20260503025105 71 336 1.0 2.0 0.00 0.24 0.24 94 1014.2
20260503024606 71 336 1.0 2.0 0.00 0.24 0.24 94 1014.2
20260503024106 71 336 1.0 2.0 0.00 0.24 0.24 94 1014.3
20260503023605 71 336 0.0 0.0 0.00 0.24 0.24 94 1014.3
20260503022606 71 198 0.0 1.0 0.00 0.24 0.24 94 1014.4
20260503022106 71 199 0.0 2.0 0.00 0.24 0.24 94 1014.4
20260503021605 71 199 0.0 2.0 0.00 0.24 0.24 94 1014.3
20260503021105 71 196 1.0 2.0 0.00 0.24 0.24 94 1014.3
20260503020606 71 192 0.0 2.0 0.00 0.24 0.24 94 1014.2
20260503020112 71 192 0.0 0.0 0.00 0.24 0.24 94 1014.1
20260503015606 71 192 0.0 1.0 0.00 0.24 0.24 94 1013.9
20260503014605 71 192 0.0 1.0 0.00 0.24 0.24 94 1013.8
20260503014106 71 192 0.0 0.0 0.00 0.24 0.24 94 1013.6
20260503013605 71 192 0.0 0.0 0.00 0.24 0.24 94 1013.5
20260503013106 71 192 0.0 0.0 0.00 0.24 0.24 94 1013.4
20260503012606 71 192 0.0 0.0 0.00 0.24 0.24 94 1013.5
20260503012106 71 192 0.0 0.0 0.00 0.24 0.24 94 1013.5
20260503011606 71 192 0.0 1.0 0.00 0.24 0.24 94 1013.5
20260503011105 71 192 0.0 1.0 0.00 0.24 0.24 94 1013.2
20260503010605 71 192 0.0 0.0 0.00 0.24 0.24 94 1013.0
20260503010112 71 192 0.0 0.0 0.00 0.24 0.24 94 1012.8
20260503005605 71 192 0.0 1.0 0.00 0.24 0.24 94 1012.6
20260503005105 71 192 0.0 1.0 0.00 0.24 0.24 94 1012.6
20260503004606 71 192 0.0 1.0 0.00 0.24 0.24 94 1012.6
20260503003106 71 192 0.0 1.0 0.00 0.24 0.24 93 1012.5
20260503002606 71 192 0.0 1.0 0.00 0.24 0.24 94 1012.4
20260503002105 71 192 0.0 0.0 0.00 0.24 0.24 93 1012.4
20260503001606 71 192 0.0 0.0 0.00 0.24 0.24 93 1012.3
20260503001106 70 192 0.0 0.0 0.00 0.24 0.24 93 1012.3
20260502235605 70 193 0.0 0.0 0.00 0.24 0.24 93 1012.5
20260502235105 70 193 0.0 1.0 0.00 0.24 0.24 94 1012.4
20260502234605 70 193 0.0 0.0 0.00 0.24 0.24 93 1012.2
20260502234106 70 193 0.0 2.0 0.00 0.24 0.24 93 1012.2
20260502233105 70 193 0.0 0.0 0.00 0.24 0.24 93 1012.2
20260502232606 70 193 0.0 0.0 0.00 0.24 0.24 93 1012.1
20260502232105 70 193 0.0 1.0 0.00 0.24 0.24 93 1012.1
20260502231605 70 193 0.0 2.0 0.00 0.24 0.24 93 1012.0
20260502230606 70 194 1.0 2.0 0.00 0.24 0.24 93 1012.2
20260502230111 70 194 0.0 1.0 0.00 0.24 0.24 93 1012.2
20260502225606 70 194 0.0 1.0 0.00 0.24 0.24 93 1012.2
20260502225105 70 194 0.0 1.0 0.00 0.24 0.24 93 1012.2
20260502224605 70 194 1.0 2.0 0.00 0.24 0.24 93 1012.2
20260502224105 70 195 0.0 2.0 0.00 0.24 0.24 93 1012.3
20260502223605 70 195 1.0 3.0 0.00 0.24 0.24 93 1012.2
20260502223105 70 195 1.0 3.0 0.01 0.24 0.24 93 1012.0
20260502222606 70 211 0.0 3.0 0.01 0.24 0.24 93 1012.4
20260502222105 70 236 1.0 3.0 0.01 0.24 0.24 92 1012.3
20260502221605 70 256 1.0 2.0 0.01 0.24 0.24 92 1012.2
20260502221105 70 310 1.0 3.0 0.01 0.24 0.24 93 1012.5